{"data":{"norad_id":55275,"intl_designator":"2023-010G","name":"STARLINK-5260","alt_names":[],"object_type":"PAYLOAD","status":"ACTIVE","operator":null,"country":"US","launch_date":"2023-01-19","launch_site_code":"AFWTR","launch_vehicle":null,"mission":null,"orbit_class":"UNKNOWN","rcs_meters":null,"size_class":null,"mass_kg":null,"dimensions":null,"purposes":["comms"],"wikipedia_slug":null,"has_3d_model":false,"image_url":null,"decayed_at":null,"tle_current":{"epoch":"2026-09-20T09:50:40.607808Z","epoch_age_seconds":101195,"freshness":"FRESH","line1":"1 55275U 23010G   26263.41019222 -.00000128  00000+0 -29484-5 0  9994","line2":"2 55275  69.9992 253.6078 0003657 267.7907  92.2833 14.98331215202446","mean_motion":14.98331215,"eccentricity":0.0003657,"inclination_deg":69.9992,"raan_deg":253.6078,"arg_perigee_deg":267.7907,"mean_anomaly_deg":92.2833,"bstar":-2.9484e-6,"rev_number":20244,"period_min":96.106921192321,"perigee_km":569.5104494935,"apogee_km":574.59381782586,"semimajor_km":6950.1891336597,"source":"CELESTRAK","updated_at":"2026-09-21T09:00:33.164983Z"}}}